Theta_e
313 313 313 313 313 313 313 313 313 313 313 313 313 313 313 313 314 315 315 315 315 316 316 316 316 316 316 316 316 316 315 310 308 307 306 310 318 321 323 326 328 327 324 312 309 305 304 303 305 309 308 306 306 304 309 308 305 301 293 291 289 290 292 296 296 298 299 299 300 303 303 302 300 308 310 312 325 327 330 331 336 338 337 339 341 343 343 343
313 313 313 313 313 313 313 313 313 313 313 313 313 313 313 313 313 314 314 315 315 316 316 316 315 315 316 316 316 316 313 309 306 307 307 317 324 325 327 327 330 328 322 311 307 304 303 302 304 307 305 302 308 303 308 303 306 297 294 292 290 293 296 300 301 302 299 298 301 303 303 303 302 305 312 308 314 324 324 329 333 332 335 338 340 340 340 341
312 312 312 312 313 313 313 312 313 313 313 313 313 312 312 313 313 314 314 314 315 315 316 316 315 315 316 316 315 315 311 307 307 306 312 324 323 324 327 330 329 329 315 308 307 306 306 304 305 306 304 302 304 302 305 301 303 299 294 290 292 298 299 301 303 302 303 302 301 302 304 302 303 303 309 306 309 322 321 324 329 330 331 334 336 338 339 339
312 312 312 312 312 312 312 312 312 312 312 312 313 312 312 313 313 313 314 314 315 315 315 315 315 315 315 315 315 313 309 306 304 311 317 332 327 325 326 328 330 327 315 309 307 307 309 308 306 306 305 302 303 306 300 301 298 298 296 292 295 299 298 301 303 304 303 303 302 302 303 302 303 305 305 310 314 316 319 324 329 330 331 333 335 337 338 337
312 312 312 312 313 312 312 312 312 312 312 313 313 313 313 313 313 313 313 314 314 315 315 315 315 315 315 315 315 312 306 300 305 316 325 332 331 328 327 326 333 320 313 309 307 307 307 307 306 305 304 299 303 301 300 302 302 299 296 298 299 300 298 302 304 304 302 303 302 301 300 301 304 305 303 303 309 309 317 324 332 334 334 334 335 336 337 337
312 312 312 312 312 312 312 312 312 312 312 312 312 313 313 313 313 313 313 313 313 314 314 315 315 314 315 315 312 310 305 289 307 316 332 330 330 328 327 332 333 313 310 306 305 305 304 304 304 302 301 300 298 296 299 301 302 294 297 298 300 301 300 303 304 303 302 302 301 300 302 303 302 301 303 304 311 315 322 327 332 335 335 338 339 338 336 336
311 311 312 312 312 312 312 312 312 311 312 312 312 312 313 313 312 313 313 313 313 313 314 314 314 314 314 314 311 308 305 305 312 318 329 332 329 329 332 331 330 313 306 304 304 302 303 303 303 301 301 299 300 299 301 301 302 298 294 298 300 302 301 303 303 303 301 302 301 303 304 301 300 300 304 313 319 321 322 325 331 334 335 338 337 337 336 336
311 311 311 311 311 312 311 312 311 311 311 312 312 312 312 312 312 312 312 312 312 312 313 313 313 314 314 309 308 303 304 306 315 325 332 332 328 330 325 316 308 307 305 303 303 302 304 303 301 303 299 296 299 300 301 299 300 297 296 299 301 302 302 303 302 302 301 301 302 303 301 300 301 301 302 309 320 321 322 325 330 334 335 337 336 335 335 335
311 311 311 311 311 311 311 311 311 311 311 311 312 312 312 312 312 312 312 312 312 312 312 313 313 314 314 309 305 302 303 313 317 322 327 322 318 319 312 307 307 305 305 306 306 305 305 303 303 302 295 298 301 299 299 297 293 298 298 300 301 302 303 303 303 302 302 302 302 300 298 299 301 303 300 304 318 320 322 323 328 332 334 335 335 335 335 334
311 311 311 311 311 311 311 311 311 311 311 311 311 311 311 312 312 311 312 312 312 312 312 312 313 313 309 306 306 298 309 320 321 324 321 317 317 312 307 307 306 304 304 306 307 307 305 305 302 304 302 300 301 298 300 298 295 300 299 299 300 301 301 303 302 303 302 303 301 299 297 299 301 302 293 302 317 320 322 322 325 328 331 333 335 334 335 334
310 311 311 311 311 311 311 311 311 311 311 311 311 311 312 311 311 312 311 312 312 312 312 312 313 312 306 308 302 298 315 314 321 321 319 316 312 307 304 306 306 305 305 306 306 309 309 309 306 304 302 297 300 298 298 298 301 300 300 299 298 300 302 302 301 301 300 301 302 302 299 299 299 300 296 299 307 320 320 321 323 326 329 331 333 333 334 334
310 310 310 310 310 310 311 311 311 312 311 311 311 311 311 311 311 311 311 311 311 312 312 312 313 310 308 305 301 302 313 313 313 318 317 312 309 308 307 308 306 306 305 303 306 309 310 309 306 302 295 302 295 299 298 302 301 300 300 295 297 299 298 300 299 301 301 300 302 301 299 296 297 295 300 302 302 318 319 320 322 324 328 330 330 331 331 333
310 310 310 310 310 310 310 311 311 311 311 311 311 311 311 311 311 311 311 311 311 312 312 312 312 310 306 299 303 313 313 313 311 312 314 312 311 311 309 310 309 307 307 306 306 310 310 307 306 301 302 300 298 293 300 302 300 300 299 296 295 295 293 299 301 301 300 301 302 301 287 289 294 298 300 302 303 312 318 319 320 322 324 326 328 328 329 331
310 310 310 310 310 310 310 311 311 311 311 311 311 311 311 311 311 311 312 311 311 312 312 312 310 308 305 302 309 311 313 313 314 312 311 314 311 311 312 312 312 310 310 308 309 310 309 306 306 304 304 300 296 304 300 299 301 293 296 296 289 289 289 298 299 299 298 301 302 300 288 288 295 297 300 301 303 305 312 316 318 319 320 325 328 328 327 330
310 310 310 310 310 310 310 311 311 311 311 311 311 311 311 310 311 312 312 311 311 312 312 313 310 305 302 305 316 318 330 321 312 313 314 313 312 310 310 312 311 312 311 310 309 310 310 309 306 301 297 303 301 298 294 294 296 296 291 286 289 289 290 297 300 299 296 299 302 298 290 289 294 297 301 302 302 303 308 312 314 317 319 323 325 326 326 330
310 310 310 310 310 310 310 310 310 310 310 310 310 310 311 311 311 312 312 312 312 311 311 307 307 306 303 300 310 327 316 315 314 317 313 310 312 310 311 310 311 311 310 309 311 310 309 308 301 299 299 300 296 291 290 290 291 294 289 289 288 288 290 293 298 300 300 299 300 298 289 293 293 298 300 302 302 304 304 307 307 317 319 320 322 324 326 330
309 309 309 309 309 309 310 310 310 310 310 310 310 310 310 311 311 311 311 312 310 312 308 306 312 308 298 311 320 310 309 312 314 312 310 309 309 313 312 309 308 308 308 309 308 308 306 303 304 300 301 293 293 293 286 284 285 288 290 287 290 290 289 288 295 299 299 299 295 298 294 292 294 299 301 300 302 304 304 304 308 316 318 318 319 323 327 329
309 309 309 309 309 309 309 310 309 309 310 309 309 309 308 310 312 309 309 309 311 311 309 311 309 305 302 312 305 308 311 312 312 312 309 309 309 309 311 308 307 306 306 304 306 301 303 297 299 291 295 294 293 289 285 283 286 287 287 287 288 291 292 291 290 295 298 298 296 295 295 294 295 297 298 299 300 303 304 304 304 314 318 318 320 324 326 327
309 309 309 309 309 309 309 309 309 309 309 309 309 311 312 313 310 309 306 309 305 302 298 301 302 289 292 304 311 313 313 313 314 312 307 307 308 308 310 311 308 303 300 298 297 299 299 296 300 290 288 288 290 291 289 291 293 292 292 290 290 288 289 290 295 298 297 294 295 294 292 294 296 296 299 300 301 300 303 305 304 315 318 320 323 324 325 326
309 309 309 309 309 309 309 309 309 309 309 306 304 305 306 304 304 305 306 307 304 307 306 305 307 304 302 305 307 311 314 313 308 308 308 309 307 305 305 307 304 303 299 293 296 297 298 289 286 287 289 292 295 295 295 296 296 295 294 293 291 291 293 296 296 298 299 295 294 294 294 295 295 296 298 300 299 302 303 303 304 314 318 320 321 322 323 325
309 309 308 308 309 309 309 309 309 309 309 306 303 300 295 295 291 293 297 304 307 309 308 307 309 306 305 309 311 310 306 306 307 306 307 311 307 305 302 303 299 294 294 297 296 302 297 288 288 292 294 295 296 298 297 296 297 295 293 292 291 293 291 296 297 299 299 295 292 294 293 294 295 297 298 299 300 301 302 302 303 314 317 319 319 318 320 319
308 308 308 308 309 309 309 309 309 309 309 305 301 298 299 297 300 302 298 293 299 308 309 307 307 304 310 310 312 311 308 302 302 305 308 308 305 300 300 300 296 291 295 296 295 292 288 287 292 295 298 299 298 298 299 297 295 295 292 291 290 292 296 298 299 300 299 296 291 295 293 293 295 297 299 300 302 302 304 305 304 313 317 317 317 317 315 316
308 308 309 308 308 308 309 309 309 308 304 301 300 300 300 304 305 306 302 296 295 301 300 300 301 304 305 309 310 310 302 300 299 303 305 307 303 302 300 297 294 294 295 295 290 290 287 289 294 298 298 297 298 298 299 301 298 292 290 288 288 294 292 288 295 298 299 298 293 293 293 292 296 297 297 298 302 303 304 306 306 306 314 315 315 315 316 318
308 308 308 308 308 308 309 309 308 305 302 302 301 302 307 309 306 305 302 294 293 299 301 302 302 301 301 301 308 306 303 302 303 301 308 307 301 303 300 297 294 293 291 294 293 290 290 295 298 297 298 297 296 297 297 293 291 296 297 293 291 293 294 293 294 298 302 300 301 294 291 289 294 294 295 298 302 306 304 305 305 305 310 315 316 317 318 317
307 307 308 308 308 309 308 308 302 307 306 306 303 307 308 308 307 308 299 295 295 296 306 304 304 302 304 309 309 303 304 304 304 307 308 307 304 301 298 301 295 290 293 294 294 292 292 298 300 297 296 297 295 294 296 296 290 291 296 296 295 296 295 295 297 295 291 290 298 294 283 283 289 293 295 296 299 302 303 302 303 304 311 315 315 315 316 318
307 307 307 308 308 307 308 302 305 304 302 297 300 306 310 313 309 309 301 292 287 297 302 294 307 299 308 302 305 305 305 298 305 307 308 308 310 304 301 296 297 290 293 293 292 292 293 298 299 297 295 295 295 294 298 298 291 290 291 298 296 296 295 294 294 293 286 283 295 298 286 280 288 292 294 296 298 300 302 303 303 304 312 314 315 315 316 317
307 307 307 307 307 308 300 297 304 303 298 297 303 305 307 309 308 308 296 287 284 299 296 301 302 299 306 304 304 305 289 293 306 307 306 310 305 308 297 293 296 297 298 298 292 288 296 296 296 298 297 295 293 290 298 297 291 289 298 297 296 294 293 294 293 292 289 298 302 299 290 284 284 289 295 297 297 299 301 302 306 311 313 314 315 315 315 316
307 307 307 308 307 306 300 302 300 299 301 303 307 309 307 309 308 305 292 276 275 300 297 297 302 309 305 305 306 299 299 304 297 302 307 308 308 302 299 295 294 294 297 294 283 295 297 294 295 296 296 293 291 295 299 298 294 291 297 298 295 294 294 294 291 289 293 291 286 292 296 286 283 289 295 296 293 297 299 301 308 310 312 314 315 315 315 316
307 307 307 307 307 307 305 302 301 300 306 308 309 310 311 309 305 295 286 277 295 296 308 298 311 307 304 305 302 302 301 303 296 301 305 308 308 304 294 297 298 296 297 296 288 295 299 298 298 297 295 291 297 297 297 298 292 295 297 298 297 296 296 295 290 289 292 288 282 289 294 284 282 288 291 295 294 294 298 304 308 311 313 314 315 316 316 316
307 307 307 307 305 304 305 304 300 306 308 310 310 311 309 304 296 286 280 273 301 288 299 301 300 299 303 298 298 301 299 300 302 302 304 302 303 305 304 305 299 296 294 297 295 296 298 305 303 299 295 298 297 298 298 298 297 298 297 295 294 294 292 292 290 290 288 282 283 293 296 292 282 287 290 291 293 295 299 304 308 310 311 313 314 316 317 317
307 307 307 307 300 303 303 299 304 309 310 311 310 309 304 298 288 280 275 286 296 294 300 299 298 304 299 297 293 300 300 300 300 299 296 303 300 302 302 297 301 294 292 292 292 295 297 298 297 298 302 301 299 296 299 299 298 297 293 291 290 288 291 289 290 290 281 277 287 292 294 294 281 284 292 298 302 301 304 306 307 309 311 312 313 316 318 318
307 307 307 304 304 305 299 299 307 308 306 308 309 304 295 281 288 278 279 300 284 291 292 294 299 299 299 300 298 297 296 298 299 298 294 296 294 294 294 288 293 285 283 285 285 294 292 292 296 299 303 299 296 293 292 297 296 295 291 291 287 282 284 280 284 279 278 276 287 292 293 290 286 294 298 302 303 307 307 308 309 310 311 313 315 317 318 318
306 306 307 306 307 303 303 305 307 306 306 307 304 297 289 278 273 282 285 291 287 296 292 299 297 297 298 297 295 298 300 293 298 297 298 298 295 295 298 296 295 290 282 288 288 289 288 295 295 297 298 300 297 288 287 290 293 291 288 287 283 280 279 275 278 280 280 287 292 291 294 286 292 297 302 302 303 308 309 311 313 312 312 313 315 317 318 319
306 306 302 305 306 306 307 308 308 308 308 309 300 292 287 277 276 293 288 289 289 296 297 295 296 298 298 293 296 298 293 297 296 296 298 295 295 290 294 297 298 292 291 290 284 286 280 282 290 294 290 298 296 294 293 292 291 292 294 290 286 283 282 276 279 275 278 279 288 294 289 283 285 291 303 304 306 308 308 310 313 314 314 315 316 318 319 319
305 305 304 306 306 308 308 309 310 311 310 303 293 286 277 278 283 283 286 290 293 296 294 298 294 293 294 296 299 299 298 292 297 296 295 295 290 292 291 292 297 297 293 284 290 287 288 286 292 297 296 298 295 298 298 296 292 293 296 294 288 283 288 283 283 284 283 281 281 285 284 292 289 298 303 305 308 308 309 310 312 312 314 314 314 315 315 315
304 305 312 309 310 311 311 312 312 310 307 300 288 280 279 284 282 289 288 296 295 292 294 295 294 289 289 292 297 297 304 294 300 294 294 295 296 293 297 296 295 297 291 284 290 283 289 284 294 296 298 296 297 299 298 298 285 291 292 285 288 296 293 284 285 290 283 282 280 286 288 294 299 300 302 305 307 308 308 308 310 311 311 313 314 314 315 315
301 306 306 313 314 315 314 314 313 310 306 297 287 279 286 288 292 291 294 292 293 293 290 285 287 287 288 287 292 296 301 298 296 294 290 297 296 296 297 297 299 296 297 294 290 293 285 285 296 295 293 297 298 299 298 298 296 293 288 289 296 298 298 288 281 282 281 278 280 287 282 286 289 284 300 303 304 305 306 307 308 310 313 313 313 313 314 314
301 304 308 308 311 317 316 314 312 307 302 294 283 290 293 287 293 292 294 293 293 293 289 286 288 293 288 288 288 292 299 292 295 294 291 296 290 302 297 296 301 300 297 298 290 293 293 284 290 296 296 298 299 298 296 298 299 294 292 298 291 282 282 286 282 279 278 277 279 282 288 288 289 289 296 298 301 302 304 306 307 308 311 311 312 312 313 314
302 303 302 308 314 316 312 313 309 303 295 288 282 284 290 291 294 293 294 293 293 290 286 289 286 292 291 287 290 294 296 289 295 295 289 294 287 300 299 299 298 300 301 300 291 294 297 283 286 295 294 299 300 295 285 289 297 298 298 295 299 291 285 281 283 285 284 279 280 280 288 281 293 293 296 299 301 303 303 304 306 308 310 311 312 313 314 315
303 303 301 312 313 314 316 313 306 299 293 284 286 288 293 289 292 294 294 293 291 289 288 288 292 287 291 291 293 289 293 294 293 295 293 295 293 301 299 304 298 299 300 301 297 298 287 291 281 290 297 297 288 291 288 290 290 289 290 290 294 293 296 292 293 286 283 280 280 280 280 284 292 299 301 301 302 304 304 304 305 307 310 311 312 313 315 315
305 300 301 313 313 315 313 306 298 293 290 292 294 292 293 291 294 294 295 295 293 296 291 290 290 287 291 290 290 293 291 295 294 293 294 294 294 287 304 300 300 297 300 300 297 297 286 286 284 288 289 288 293 297 298 297 296 292 291 288 289 289 286 281 282 292 291 285 279 281 281 287 297 305 305 303 304 305 306 305 305 307 309 310 311 313 315 315
300 294 300 314 314 314 307 295 294 297 293 290 289 293 292 300 294 293 294 294 293 291 296 293 293 292 292 291 291 292 292 290 294 294 295 292 300 297 301 303 301 301 297 291 295 302 297 293 288 284 288 289 294 298 301 300 299 297 296 292 295 291 291 286 280 283 288 289 292 287 285 286 299 303 304 305 306 306 307 307 306 307 308 309 310 311 312 315
301 296 308 312 313 310 302 292 293 290 291 294 298 297 298 296 295 296 295 295 291 293 295 294 293 293 295 292 293 291 293 290 294 292 296 296 298 300 304 304 302 301 300 298 299 298 305 286 286 288 293 295 297 299 299 300 298 295 295 297 295 292 293 289 288 290 286 288 284 283 283 288 300 305 306 306 307 308 309 308 307 307 308 309 310 310 310 311
299 300 303 311 314 311 296 283 284 285 291 295 295 294 298 296 295 294 294 294 293 292 293 294 294 296 293 295 293 290 295 285 296 295 293 296 295 304 303 304 303 301 299 298 294 298 288 289 289 283 283 284 287 292 292 296 296 291 290 293 297 298 297 297 294 290 284 286 288 283 279 283 297 306 306 306 307 306 308 310 310 308 308 310 309 310 311 311
298 303 302 305 310 307 294 295 290 285 289 291 291 290 293 295 297 296 295 294 295 293 294 293 294 294 293 295 293 294 295 292 291 297 295 298 297 301 300 302 303 304 303 304 305 301 290 289 288 281 278 276 276 277 280 283 287 291 295 295 297 297 295 292 284 285 281 286 290 285 285 293 300 303 304 304 305 304 307 308 308 309 308 309 310 310 309 310
296 284 295 297 301 298 298 301 296 292 288 290 285 290 293 291 295 298 298 295 295 295 293 294 295 294 292 292 291 291 291 295 291 294 293 292 297 299 301 302 302 301 307 310 307 301 291 295 292 287 284 282 284 288 293 293 292 287 291 293 295 297 297 294 287 283 283 285 284 289 292 292 296 299 300 301 303 303 303 306 306 307 308 309 309 309 309 310
301 289 287 284 296 295 292 295 294 294 287 293 282 291 290 291 294 294 299 292 295 294 294 295 293 292 292 291 291 291 293 292 295 293 294 295 296 297 301 302 301 304 310 304 309 297 293 286 292 293 292 292 295 293 296 294 292 292 291 292 295 295 295 292 287 284 292 285 282 289 294 291 293 298 299 299 301 303 304 306 306 306 307 308 309 311 311 311
289 293 297 297 290 284 284 286 294 293 295 295 290 294 290 290 291 287 296 297 296 296 292 293 294 295 292 293 293 285 290 292 295 289 296 297 294 296 297 300 301 306 306 300 304 297 293 285 293 294 296 295 294 295 294 294 293 293 293 293 293 295 294 290 288 292 292 282 282 291 295 293 296 299 299 301 302 302 304 304 305 306 307 309 310 310 310 308
297 297 297 300 289 291 291 293 296 294 293 293 289 292 288 289 288 292 291 292 294 294 295 283 292 294 294 295 294 289 291 285 284 295 293 294 296 294 291 296 301 302 300 299 300 301 295 288 295 294 292 293 293 293 294 293 293 293 293 293 294 293 292 292 292 293 294 291 294 295 295 293 293 292 295 301 302 302 302 305 306 304 300 299 301 300 298 298
291 292 291 297 297 292 294 292 294 293 288 293 285 290 290 292 289 292 296 293 286 293 296 293 292 295 294 293 292 288 290 292 291 287 296 296 294 297 292 294 294 300 299 298 299 298 294 286 294 295 288 290 292 293 293 292 293 291 292 293 293 293 293 292 292 293 295 295 295 294 289 288 293 294 294 296 297 297 297 297 297 296 295 295 295 295 295 295
298 300 299 293 288 291 292 292 290 288 284 288 287 291 292 292 291 293 292 296 293 290 292 292 295 296 294 293 291 291 293 292 293 293 295 295 289 297 293 294 301 296 298 298 298 296 295 286 294 293 283 284 291 290 291 292 291 290 290 290 291 290 287 289 288 293 292 291 293 292 287 286 291 293 293 292 293 293 292 292 292 293 294 294 294 293 293 293
299 300 301 297 286 292 289 292 291 288 282 286 291 291 290 291 293 294 287 296 296 295 294 293 293 293 290 290 289 291 294 295 295 296 296 297 298 297 299 300 300 295 296 297 298 292 294 289 285 285 283 282 291 291 291 290 287 283 284 288 292 292 292 292 294 295 292 290 286 287 287 291 292 293 291 290 291 291 291 292 291 291 292 292 292 292 293 293
Wind_Speed
12 12 12 12 12 13 13 13 13 12 12 12 12 12 12 11 12 12 12 12 12 13 14 14 14 14 15 16 16 17 15 11 13 9 10 20 12 18 18 12 4 13 13 4 4 3 4 6 7 7 6 4 4 7 7 8 5 3 5 4 7 7 10 9 10 7 2 1 2 5 6 5 6 2 4 3 18 14 12 14 12 17 12 14 15 17 17 16
12 12 13 13 13 13 13 13 13 13 12 13 12 12 12 12 12 12 12 12 13 13 13 14 14 14 15 15 15 17 13 11 14 13 19 17 9 16 15 15 8 13 11 4 7 7 5 7 7 6 7 5 4 5 4 3 4 5 3 5 9 6 11 10 11 12 6 3 5 2 4 3 3 2 0 3 11 14 12 10 14 16 14 14 15 16 16 16
12 12 12 13 13 13 13 13 13 13 13 13 13 13 12 12 12 12 12 12 12 13 13 14 14 14 15 14 15 14 12 11 10 13 18 21 25 18 13 10 11 14 11 5 6 8 8 7 7 7 6 6 5 8 6 5 5 6 5 7 8 7 10 13 11 11 14 6 4 4 1 1 1 2 3 3 10 14 11 10 11 15 14 13 12 14 15 13
13 13 13 13 13 13 13 13 13 13 13 13 14 13 13 13 13 13 13 13 12 13 13 13 14 14 15 15 14 11 8 10 5 8 5 6 13 23 16 11 12 13 6 6 5 8 8 6 10 10 7 8 5 9 6 6 5 2 7 7 6 6 10 14 13 17 13 4 2 3 2 1 4 0 2 6 14 9 7 9 15 14 16 15 14 13 12 13
13 13 13 13 13 13 13 13 14 14 14 15 14 14 13 13 13 13 13 13 13 13 13 13 14 14 15 14 13 7 9 4 1 1 7 5 6 15 17 13 12 9 8 3 5 9 9 9 9 10 8 5 8 5 8 8 8 4 6 10 11 12 13 17 11 10 9 3 6 7 3 3 7 4 3 3 8 6 7 11 16 16 16 14 14 12 11 11
13 13 13 13 13 13 13 13 13 14 14 14 15 14 14 14 13 13 12 12 12 12 13 13 13 14 14 14 9 7 2 1 3 3 2 2 11 15 15 11 11 8 5 4 5 5 7 9 9 8 6 5 4 7 5 9 6 8 8 7 12 14 13 14 10 11 2 3 7 4 6 6 4 4 2 3 8 5 8 12 14 16 15 15 13 13 10 11
13 13 13 13 13 13 13 13 13 14 14 14 14 14 14 14 14 13 13 12 12 12 12 12 12 13 13 13 7 1 3 10 9 4 6 4 11 13 12 8 6 3 5 5 7 6 7 10 9 7 5 7 8 8 10 8 10 9 7 7 11 8 12 12 10 12 1 6 1 1 5 9 2 1 1 11 11 13 10 12 13 13 13 14 13 11 12 11
13 14 14 13 13 14 14 14 14 14 14 14 14 14 14 14 14 14 13 13 12 12 12 12 12 12 13 9 2 2 3 10 13 1 8 6 8 10 11 7 6 4 6 9 7 9 9 9 9 6 7 6 4 10 8 11 9 10 13 11 7 8 10 12 9 12 3 4 5 3 3 8 4 1 4 7 14 12 13 15 14 14 14 11 12 11 11 10
14 14 14 14 14 14 14 14 14 15 14 14 14 15 15 15 14 14 14 13 13 12 12 11 11 10 9 4 1 6 9 10 12 7 8 7 6 7 10 7 6 7 5 7 8 9 7 6 9 7 4 8 8 10 7 7 8 7 9 7 10 12 12 11 12 9 11 4 5 5 4 5 4 7 4 5 12 13 14 15 17 16 14 12 11 11 12 10
15 15 15 15 14 14 14 15 15 15 15 15 15 15 14 14 14 14 14 13 13 12 11 11 10 10 7 2 3 2 10 0 8 10 11 8 8 6 7 7 10 7 6 7 7 9 9 8 8 6 10 10 8 6 7 8 7 5 8 10 12 10 9 10 16 14 5 1 3 2 4 4 3 3 3 1 13 11 14 15 14 14 12 11 10 9 9 10
15 15 15 15 15 15 15 15 15 15 16 15 15 15 15 14 14 14 14 14 13 12 11 10 10 8 5 3 3 7 8 7 3 8 13 11 10 8 9 6 11 8 7 6 10 11 12 14 10 4 4 4 2 8 8 6 6 9 9 11 8 11 14 13 11 9 4 4 3 1 4 3 4 5 6 7 10 16 16 16 14 13 12 10 11 10 9 9
16 16 16 15 16 16 16 16 16 16 16 16 16 16 16 16 15 14 14 14 14 12 10 9 9 4 6 5 6 11 6 4 1 2 7 10 8 9 8 7 11 8 9 8 10 11 12 12 9 5 5 2 9 7 10 10 10 11 11 12 12 11 9 4 6 6 6 5 5 5 6 6 4 4 9 12 4 15 17 16 16 15 13 12 11 10 7 7
16 16 16 16 16 16 16 16 16 16 16 16 18 17 16 16 15 15 15 14 11 11 8 8 7 4 3 5 12 18 17 15 17 15 5 8 6 7 7 8 9 11 10 10 11 12 11 8 4 6 4 5 4 4 6 9 7 5 5 6 9 8 7 8 4 7 9 2 5 5 5 7 7 7 8 11 8 13 16 15 14 13 13 12 11 10 8 7
17 16 16 16 16 16 16 16 17 17 18 18 17 18 17 16 16 15 15 14 12 11 9 7 4 4 2 8 7 7 11 11 15 16 12 10 9 9 10 8 9 11 10 12 12 9 8 5 6 5 4 6 4 6 9 6 7 7 4 3 5 4 7 2 4 5 10 5 9 7 7 7 9 8 8 8 11 10 14 15 14 14 12 11 11 10 9 8
17 17 17 16 17 17 17 18 17 18 19 19 20 19 18 18 17 15 14 11 10 10 9 4 4 2 3 10 9 19 25 17 13 14 12 10 9 6 11 10 10 11 11 10 7 5 4 4 4 4 5 2 5 6 8 4 3 4 5 7 3 8 4 5 8 6 10 4 10 5 5 7 6 9 11 10 11 9 11 11 13 14 13 12 11 10 9 8
17 17 17 17 17 18 18 17 18 18 19 20 20 21 21 19 16 14 13 11 9 8 4 5 5 6 5 10 7 8 4 6 10 15 10 7 6 9 8 10 7 6 4 5 4 3 4 3 4 2 3 3 6 5 6 6 4 4 5 4 5 4 7 6 10 11 12 9 8 12 4 6 4 8 10 9 14 10 12 15 11 18 16 13 10 11 10 9
17 17 17 18 17 17 18 18 18 19 20 20 22 22 21 19 14 10 8 8 5 4 5 2 2 7 1 4 10 8 8 8 6 7 6 6 6 8 7 8 6 7 5 7 5 4 4 5 1 4 2 3 3 4 5 7 6 7 4 7 6 8 3 7 5 12 13 13 6 13 8 4 4 12 14 9 16 11 16 12 15 19 12 12 10 10 12 11
17 18 18 17 18 18 18 19 19 20 21 21 20 22 19 19 9 1 7 3 3 5 7 6 6 4 12 8 7 9 6 8 10 8 9 5 9 8 9 7 6 8 5 6 6 5 3 3 2 3 2 4 4 4 7 9 7 7 5 6 8 8 11 11 5 5 13 13 14 10 13 8 8 9 11 5 7 10 11 13 12 17 13 12 8 10 11 11
18 18 18 18 19 19 19 19 19 20 21 21 20 20 18 4 3 3 2 3 3 1 1 3 4 5 5 3 11 8 4 9 10 10 10 8 9 8 8 7 6 8 5 5 2 7 2 3 2 4 7 6 9 10 9 8 7 11 12 7 7 7 8 11 14 14 11 10 16 12 12 12 13 10 11 8 6 4 7 9 8 16 13 13 12 10 10 9
19 19 19 19 20 19 19 19 19 20 20 14 12 10 2 1 1 1 2 4 6 8 10 6 13 8 11 15 12 11 7 7 9 9 5 10 7 10 11 7 4 4 4 6 3 8 3 7 7 9 8 7 7 10 11 12 11 12 12 11 8 8 7 9 14 12 13 9 18 14 11 14 13 11 11 11 5 8 17 8 9 14 12 14 11 10 10 8
20 19 19 20 20 20 19 20 18 16 16 9 9 4 2 3 4 2 2 8 15 13 13 12 15 16 14 12 13 12 7 2 2 5 9 9 8 6 9 7 5 5 6 5 6 3 6 6 10 8 8 9 10 9 11 13 10 9 8 7 9 10 9 11 13 14 11 6 10 9 7 14 11 11 13 7 8 3 5 10 8 15 11 12 12 11 11 19
19 20 20 20 20 20 21 20 19 16 10 5 4 4 5 10 7 7 4 10 7 13 15 18 14 16 14 15 18 12 11 9 8 6 3 14 8 8 4 7 5 7 5 5 5 2 7 10 7 9 9 9 11 9 7 10 11 10 6 7 7 9 8 14 19 19 9 9 11 11 7 8 13 11 14 6 7 8 10 10 10 18 13 11 10 14 21 17
19 20 20 20 21 21 22 23 18 17 8 3 4 6 7 10 9 7 5 6 15 10 13 15 16 19 18 14 13 9 13 12 9 9 6 11 7 10 4 8 6 6 5 8 8 4 5 8 14 11 10 9 8 11 7 3 5 7 7 7 8 8 4 7 11 9 8 4 3 5 7 4 6 7 7 4 7 8 7 10 8 12 16 10 12 19 19 19
19 20 20 21 22 22 24 24 24 10 5 9 9 10 12 8 9 11 5 2 9 18 15 16 14 14 17 14 6 13 12 7 7 10 8 11 8 9 6 7 9 7 9 10 12 9 9 12 9 10 10 9 10 9 5 3 4 2 3 4 7 9 8 5 6 13 7 4 6 8 4 3 2 2 5 3 5 4 6 7 6 9 19 27 25 18 18 20
20 20 21 22 22 25 24 26 9 1 4 7 6 13 14 13 9 7 4 4 4 9 4 11 10 11 14 9 7 10 8 9 8 4 6 13 10 5 8 5 5 8 10 10 12 12 13 14 7 13 14 14 11 10 8 4 2 2 3 6 8 10 11 8 10 8 6 3 3 6 2 3 2 3 6 6 1 7 5 8 6 16 20 22 18 17 15 15
19 20 20 20 22 23 26 8 1 8 11 8 6 10 7 7 5 2 2 2 6 6 3 6 9 8 7 9 9 10 8 10 9 8 5 12 11 8 5 6 4 7 11 11 10 5 10 9 9 11 15 13 14 12 4 4 3 1 4 4 9 13 9 6 11 5 1 3 4 3 5 4 4 5 6 4 5 7 5 7 6 12 18 18 14 16 17 16
20 19 19 19 19 18 9 3 7 11 6 5 9 13 12 8 8 5 1 2 4 5 5 2 7 1 1 8 11 9 8 8 7 9 9 11 11 7 5 6 4 6 6 4 3 6 7 12 10 10 8 14 8 6 3 3 4 7 2 5 10 10 9 4 5 5 4 3 3 2 5 3 3 6 6 6 4 7 10 6 14 20 18 16 13 11 14 14
20 19 18 19 18 12 5 8 11 8 8 10 10 12 11 9 8 3 3 2 2 4 4 0 2 2 2 9 14 11 6 3 8 9 11 11 10 8 8 7 8 10 9 5 7 3 10 9 10 5 4 0 4 4 4 7 6 3 4 10 13 11 9 7 4 5 2 2 3 2 3 1 3 6 6 5 4 4 9 8 18 16 16 17 17 15 15 16
19 18 19 19 20 21 11 6 4 8 5 6 11 12 8 7 2 2 1 1 4 2 3 4 4 2 2 5 9 6 8 4 5 7 6 13 14 3 8 12 10 8 6 7 7 4 4 10 9 8 2 4 3 3 5 6 6 7 8 6 7 7 8 8 4 6 0 2 3 3 3 3 3 4 4 6 9 7 7 13 17 18 17 17 14 13 14 13
21 19 19 19 16 8 1 5 9 14 9 11 11 11 7 5 2 1 0 3 1 3 3 1 2 5 3 6 4 7 9 3 6 5 9 10 11 5 3 3 9 10 11 9 12 9 6 5 7 7 8 6 4 5 6 7 10 3 6 8 8 8 6 5 6 3 2 3 5 3 2 2 4 4 5 2 5 6 6 8 11 12 12 12 14 17 14 14
21 20 19 16 6 4 6 6 13 11 10 10 8 6 2 1 1 1 3 4 5 7 0 2 6 8 8 8 5 7 8 6 9 4 5 8 8 7 1 5 5 4 5 5 4 10 12 5 3 1 4 6 5 5 6 10 8 9 4 5 4 7 4 3 1 2 1 2 4 7 5 4 4 4 5 5 5 7 13 15 14 11 11 10 9 12 14 14
21 21 19 11 9 6 5 6 0 5 9 11 6 4 0 0 1 2 3 1 5 4 4 4 6 6 10 8 6 7 8 8 9 6 9 8 5 7 6 4 4 4 5 4 6 5 10 6 2 5 1 4 3 7 6 9 7 10 5 2 1 1 0 3 0 3 4 4 3 5 6 2 4 1 2 5 5 9 11 15 15 14 12 10 11 14 12 13
23 21 24 14 11 9 13 16 11 11 10 10 3 3 0 2 3 4 6 3 3 4 5 8 3 8 6 7 8 7 10 9 7 7 8 7 6 9 8 10 3 6 2 3 4 2 5 4 3 6 4 6 3 3 3 5 2 1 5 6 3 1 2 3 2 1 2 2 2 6 7 5 2 1 4 8 5 4 9 15 15 16 15 12 12 11 11 10
24 24 13 7 7 11 9 5 9 10 6 3 1 2 0 0 3 5 8 8 13 13 13 9 14 8 8 8 5 4 5 9 6 5 8 5 9 4 7 12 13 4 5 1 4 4 3 4 8 3 3 6 6 8 4 3 4 6 2 5 8 5 3 3 2 3 5 5 6 9 4 2 2 3 3 9 12 12 8 10 13 14 15 13 14 13 13 13
27 22 10 6 7 10 11 10 8 8 5 1 0 1 3 4 3 3 5 6 8 11 14 12 12 9 5 2 5 6 8 4 12 5 9 5 7 4 5 8 11 9 4 3 2 1 7 6 6 11 7 9 9 5 6 4 4 2 3 2 1 4 4 4 4 1 1 0 2 4 2 1 4 3 3 7 12 12 12 12 11 10 10 11 15 15 13 12
17 6 3 3 5 5 10 9 8 7 4 1 1 2 6 4 2 3 4 6 9 10 12 12 11 6 3 2 7 12 5 2 6 4 4 10 8 7 5 4 8 12 4 6 2 3 2 3 4 12 12 8 10 6 6 2 1 3 3 2 8 6 7 2 1 1 3 4 2 2 1 2 1 4 3 10 12 10 12 12 11 8 7 10 13 12 13 15
6 8 2 5 8 5 9 8 7 4 2 1 1 4 3 5 10 11 7 12 12 15 13 9 3 5 3 3 2 3 2 4 8 3 2 5 4 6 7 6 9 10 14 4 3 3 2 4 7 3 13 8 6 9 5 7 6 2 2 5 1 2 4 5 4 1 1 2 3 4 4 3 3 1 0 9 10 9 10 10 10 11 13 13 12 13 13 12
6 4 6 9 5 11 8 11 6 5 2 1 3 6 3 8 7 11 9 13 14 10 10 7 5 12 3 2 2 3 5 4 1 6 1 0 3 6 2 3 8 6 4 11 6 2 4 5 6 1 2 2 3 7 8 7 5 8 7 5 1 1 0 4 3 1 1 1 1 1 4 2 2 1 4 4 9 6 7 8 10 11 12 12 12 13 11 11
3 3 4 4 9 10 5 5 4 3 2 2 3 4 5 9 12 14 14 13 12 13 9 10 8 2 7 4 3 3 11 7 2 4 2 4 1 2 3 4 4 7 6 7 2 2 2 2 4 3 3 2 5 3 3 5 4 7 1 0 3 6 4 1 2 1 2 1 1 4 5 1 2 2 1 6 7 8 7 8 8 9 10 10 10 10 11 11
2 2 2 1 4 4 2 2 2 1 2 5 3 6 6 9 8 11 14 12 9 5 5 9 9 8 4 5 10 5 3 6 10 5 5 3 1 7 6 5 2 5 5 4 3 7 3 3 2 5 1 5 5 2 4 1 1 4 5 1 1 1 3 7 1 3 2 3 4 4 1 4 6 3 3 8 7 7 8 8 7 7 8 8 8 9 9 9
3 1 1 1 4 4 7 3 1 4 4 4 6 9 10 9 9 10 12 12 9 8 10 11 11 6 4 6 8 10 7 4 5 7 7 5 4 2 1 1 4 7 7 8 6 5 2 0 7 4 3 2 6 2 9 10 9 5 2 4 5 6 3 1 4 1 2 1 1 3 3 2 6 3 1 5 5 7 5 9 8 7 8 8 7 6 7 8
2 1 0 1 6 4 2 2 2 2 3 5 5 6 8 8 11 13 12 10 11 8 6 9 8 4 4 4 4 7 8 4 3 6 5 2 1 4 5 4 2 4 4 1 2 0 1 2 1 2 3 4 4 6 8 12 10 8 11 10 13 1 5 5 1 5 4 1 1 2 6 3 2 10 12 8 4 5 4 5 8 7 6 4 4 4 4 7
2 2 4 7 4 3 3 2 2 2 3 5 10 13 13 14 10 10 13 11 10 4 2 4 4 2 2 4 8 8 5 2 2 5 5 6 3 10 1 3 5 4 7 2 6 4 5 2 2 2 4 3 3 7 7 12 11 10 11 11 9 9 7 5 8 8 4 2 4 2 2 1 3 8 11 12 11 11 10 9 7 6 7 6 4 4 5 3
3 3 2 2 4 2 4 1 3 6 5 8 9 11 10 10 12 13 11 12 7 5 3 2 6 4 5 7 8 9 3 2 2 10 5 5 2 5 3 2 5 2 5 2 3 3 2 3 2 1 2 6 7 7 5 6 9 3 5 6 11 10 12 5 5 3 4 4 9 5 1 3 2 5 10 7 7 9 7 6 6 7 6 6 6 6 5 4
4 3 2 1 0 1 2 1 2 3 5 6 7 11 9 8 7 10 10 12 12 7 2 2 5 7 5 7 12 13 6 4 1 4 3 3 3 3 5 6 7 2 2 1 4 2 3 3 3 1 1 1 1 2 1 2 1 2 3 11 13 14 9 6 2 2 3 3 5 6 4 4 4 6 9 8 4 6 4 5 9 8 8 8 8 9 9 8
2 2 1 2 2 4 1 2 0 3 3 3 6 7 7 8 7 7 9 11 6 9 4 5 5 6 5 8 7 9 7 5 8 2 2 2 2 2 3 10 7 6 1 8 4 3 2 1 2 2 1 2 4 3 2 2 1 5 6 12 12 11 12 7 2 2 1 4 5 1 11 9 7 5 7 5 9 9 7 7 8 10 11 9 8 9 8 9
3 2 2 3 3 4 4 3 4 3 1 1 0 5 8 12 10 7 8 4 3 4 5 2 5 4 3 5 4 4 5 9 11 7 5 3 4 2 5 5 7 8 11 2 1 2 0 3 3 3 3 2 5 4 6 3 2 5 10 9 12 12 9 12 7 2 6 2 3 3 8 10 5 4 4 4 6 6 7 9 9 9 9 8 7 9 12 14
1 1 0 2 1 2 4 3 5 5 5 1 1 3 7 10 9 4 8 10 8 5 3 4 7 14 10 8 7 3 5 4 6 2 7 7 3 5 3 12 11 11 2 4 4 5 0 0 3 4 1 4 3 6 6 2 4 5 7 9 10 12 13 8 3 4 4 4 6 5 7 8 3 2 3 6 7 7 9 10 10 10 9 8 8 11 12 14
2 1 1 2 1 0 1 4 3 4 2 6 1 5 6 7 6 2 2 8 7 6 9 2 7 12 11 12 8 5 10 4 5 3 3 5 4 3 5 5 3 6 10 5 5 4 1 2 2 1 3 1 6 10 5 7 2 5 7 7 10 12 9 7 5 8 6 7 16 15 15 13 9 8 9 8 7 9 7 8 11 14 13 14 16 15 12 12
4 3 2 3 2 2 1 3 3 4 3 6 1 2 3 1 8 12 3 5 2 3 6 3 7 9 10 10 9 7 5 2 2 3 4 2 5 3 1 1 2 6 8 3 3 8 4 3 5 3 1 3 5 7 6 8 6 7 7 8 10 9 11 8 6 9 9 12 9 16 18 11 5 7 9 9 9 9 13 14 13 11 14 16 15 14 14 14
2 2 1 3 3 1 3 3 3 2 2 5 3 5 3 10 6 3 6 10 8 7 9 6 4 1 7 9 9 8 9 7 6 5 5 3 1 4 3 2 7 3 9 3 2 7 7 3 4 0 3 1 4 5 7 8 7 6 6 5 4 7 8 4 5 1 3 7 7 12 12 7 4 8 10 9 11 14 14 12 11 11 12 13 15 13 13 13
3 3 4 2 1 3 2 1 2 1 3 3 3 6 5 9 9 8 2 6 10 11 9 10 10 5 4 7 9 8 11 10 8 8 6 6 5 5 4 8 9 8 3 1 1 5 3 1 4 5 2 2 11 2 9 7 5 4 5 7 6 8 8 8 7 5 4 5 4 6 7 6 5 5 14 11 13 14 12 10 11 12 11 12 13 13 11 11
Wind_Direction
348 347 348 349 347 345 345 345 344 342 335 330 323 317 311 310 308 309 311 311 311 312 314 316 317 319 319 320 321 321 327 313 306 289 265 245 212 216 249 260 184 199 196 198 240 253 219 195 215 235 242 225 234 242 257 267 247 216 217 213 251 245 258 257 259 258 323 51 341 28 6 25 74 30 349 70 83 86 79 78 72 61 61 98 122 130 129 132
348 347 347 348 347 345 345 344 342 339 338 334 329 323 317 313 310 308 309 310 310 311 314 316 317 317 320 320 325 324 325 306 289 274 246 249 192 221 226 238 204 171 163 199 218 219 206 191 215 212 227 236 222 249 199 247 247 220 224 203 234 223 253 262 271 288 310 325 16 346 65 337 9 117 285 74 112 102 90 81 88 84 86 97 116 124 127 135
347 348 347 347 346 344 343 342 341 339 338 335 333 329 324 317 313 310 308 307 309 311 312 315 317 317 318 325 326 323 322 300 288 260 259 244 227 217 205 175 160 158 168 184 218 220 218 190 196 208 221 247 215 244 200 237 222 236 234 231 240 241 258 258 267 292 282 274 80 73 31 46 294 38 198 130 105 98 107 110 92 111 117 121 128 129 131 136
348 347 347 346 345 343 342 341 340 340 337 335 334 333 329 325 318 313 309 308 309 309 311 313 316 317 319 324 324 325 300 296 279 250 220 320 208 204 196 171 160 166 188 223 219 228 239 222 195 205 218 221 240 236 230 216 227 201 213 236 244 245 245 255 257 257 274 6 314 123 223 80 341 11 51 96 74 109 135 148 138 135 135 139 141 136 137 142
349 349 346 345 344 343 341 341 340 339 338 333 333 333 333 327 319 314 311 310 310 310 310 313 315 317 321 320 326 326 311 354 291 174 338 346 165 179 177 166 161 171 186 209 255 264 254 242 215 206 220 220 234 251 234 237 206 263 227 219 242 260 273 272 273 304 334 261 79 357 52 325 339 334 14 287 144 195 160 142 136 139 142 140 141 143 140 150
349 348 347 345 344 342 341 340 340 337 336 332 330 332 332 331 323 317 313 310 309 309 312 313 317 321 320 320 310 300 321 104 344 341 7 11 123 147 155 150 165 171 172 209 220 244 257 269 246 219 204 234 226 221 235 239 205 236 254 246 226 234 251 267 285 287 333 22 22 12 349 328 30 343 336 40 108 133 131 132 137 139 143 139 138 143 147 154
347 347 347 346 344 342 340 338 337 336 333 332 330 331 329 329 326 320 314 312 308 308 308 312 315 322 323 311 271 206 259 272 314 242 119 129 133 134 131 130 145 181 172 192 218 234 231 245 243 225 228 214 237 250 255 247 230 237 251 237 246 248 247 262 270 269 284 293 132 357 359 312 12 261 46 109 129 126 128 121 124 128 128 128 135 152 151 158
347 347 346 345 344 341 339 337 335 333 332 330 329 328 327 326 326 323 316 312 310 307 309 312 317 319 334 335 324 217 185 258 242 182 148 136 126 131 132 133 153 165 193 204 200 218 244 250 231 224 245 215 195 222 254 263 254 237 243 245 260 253 253 260 260 263 200 209 113 142 265 266 298 218 341 118 128 142 132 122 120 123 132 138 144 149 153 155
348 346 346 344 342 339 337 334 333 332 329 329 326 325 324 324 323 322 318 312 310 309 309 312 315 319 322 302 324 325 260 233 229 150 137 150 147 139 155 152 168 170 199 219 225 237 236 246 245 220 222 226 249 261 241 244 263 251 254 236 233 242 259 273 277 284 279 202 154 155 206 254 251 32 304 148 154 151 141 135 134 136 142 148 150 154 156 161
347 346 344 342 339 337 335 333 331 329 327 325 325 322 321 320 319 319 317 312 309 308 308 311 311 321 313 279 279 267 260 160 110 144 156 164 153 160 200 161 161 171 200 216 230 238 240 247 242 206 246 274 275 246 264 242 255 258 255 250 248 253 251 247 256 265 260 203 125 152 187 229 264 95 285 202 152 149 146 136 137 137 146 150 149 156 155 160
346 344 342 340 338 335 333 332 330 327 325 323 321 321 318 317 316 314 314 311 307 306 308 307 308 314 299 264 248 242 268 297 170 150 169 165 157 172 200 182 168 183 211 223 227 229 242 250 252 257 220 232 261 261 251 251 273 273 292 293 255 244 251 257 265 270 311 260 154 88 284 243 263 160 223 257 155 160 145 142 143 144 149 147 155 158 166 163
344 343 342 339 337 335 332 330 329 326 323 321 319 317 316 315 311 310 309 308 303 300 303 300 307 295 268 261 226 231 253 304 353 199 187 156 171 197 200 201 171 193 193 227 237 238 239 246 250 253 247 152 236 266 272 272 280 286 281 281 289 281 264 230 249 266 272 260 168 166 234 249 231 222 208 236 207 158 151 150 158 149 149 154 159 167 171 172
342 342 340 338 336 334 331 330 327 325 323 320 318 315 313 310 308 306 306 304 296 293 298 305 308 266 287 299 232 241 265 278 286 279 231 189 178 197 205 216 190 196 204 218 240 245 241 243 270 293 282 283 282 260 313 299 257 269 275 274 285 295 287 254 232 262 269 202 182 151 241 239 240 233 216 224 225 153 153 158 158 153 153 158 161 164 163 152
341 339 338 336 334 332 331 329 327 325 323 319 316 313 309 307 303 300 300 296 288 280 287 285 284 281 271 246 272 245 246 248 253 264 262 199 183 195 215 219 215 206 213 226 243 263 283 264 255 284 304 280 292 339 317 320 309 245 264 254 246 292 261 281 244 226 254 169 195 158 211 254 221 240 228 227 227 162 168 160 163 153 156 157 157 159 157 152
340 338 336 334 333 332 331 329 327 325 322 318 316 311 307 300 295 294 295 290 276 265 267 280 229 268 213 265 251 256 245 250 260 261 263 194 184 210 203 221 229 219 216 224 249 267 279 308 315 229 252 298 302 285 292 288 277 291 291 275 288 225 259 266 262 238 242 217 195 179 221 220 222 223 223 226 232 171 170 170 160 155 155 157 160 155 154 149
340 337 335 333 332 331 329 329 326 324 321 318 315 310 302 295 287 283 285 280 274 283 294 244 216 217 302 288 268 304 276 182 227 237 236 213 189 220 198 209 229 237 248 269 267 295 290 323 273 224 259 257 263 270 288 306 307 273 220 259 248 228 240 253 234 249 234 242 196 197 221 198 253 262 240 223 237 165 171 175 157 161 158 158 163 160 152 134
338 336 333 331 331 329 329 327 326 324 323 320 317 308 298 286 278 257 257 275 289 223 218 232 147 173 303 230 343 308 237 226 188 207 242 182 225 214 220 199 213 221 218 257 245 219 265 254 196 292 277 237 196 222 255 271 273 271 230 220 225 241 245 242 248 224 235 221 220 198 210 209 208 228 243 217 225 171 168 177 147 166 160 167 164 159 147 149
336 334 333 331 330 329 327 326 325 325 324 322 319 302 295 285 252 2 284 249 229 225 218 250 277 268 262 255 280 245 221 218 185 207 207 186 218 227 235 207 186 213 209 217 236 244 183 254 184 215 230 228 244 217 194 227 202 239 249 229 238 238 235 251 244 218 228 202 218 199 200 216 237 249 248 223 224 200 175 169 148 159 160 164 164 161 151 150
335 334 332 331 329 328 326 324 325 326 326 324 311 296 280 312 112 196 257 163 158 62 9 194 174 140 230 184 221 257 259 226 173 192 195 196 190 239 235 241 197 176 218 187 242 200 166 251 236 235 238 218 217 224 222 235 234 236 241 225 231 227 235 233 241 243 228 185 209 196 193 202 228 242 265 275 264 241 197 162 149 146 158 155 162 161 157 152
335 333 332 330 328 325 324 323 322 325 330 328 342 333 342 355 36 66 248 230 229 216 253 220 197 235 264 281 284 278 278 90 157 191 194 179 175 208 242 228 195 184 208 185 223 197 142 196 216 218 223 227 224 223 237 250 250 256 266 277 278 269 267 254 246 234 225 195 199 195 182 195 216 227 243 257 252 277 184 171 150 145 151 156 157 153 146 120
334 333 330 329 326 324 322 320 319 321 326 324 319 324 298 323 350 292 228 222 214 231 237 240 199 213 236 266 276 283 296 205 238 188 206 150 198 179 219 211 184 213 223 205 206 212 183 202 228 223 220 228 241 223 222 241 259 267 273 292 288 284 282 278 275 247 218 165 196 173 162 193 201 218 235 231 244 263 118 160 149 146 152 159 151 143 105 78
334 331 330 328 326 324 320 318 315 313 315 305 286 264 269 257 233 278 302 299 265 222 230 240 250 249 239 240 256 267 272 262 199 237 213 150 188 192 178 197 183 221 196 237 253 203 201 219 230 228 230 226 235 240 230 229 241 253 249 261 281 279 284 296 285 261 226 162 168 183 172 194 204 198 230 173 177 180 168 165 174 150 163 161 148 100 91 99
332 331 329 328 327 324 321 315 312 308 294 215 214 215 245 254 266 261 275 279 280 270 246 240 233 236 245 246 253 241 252 257 209 205 197 165 162 204 165 183 207 220 211 199 219 196 234 241 225 216 229 238 244 240 228 257 250 240 259 263 252 265 285 304 308 351 93 96 135 169 179 242 198 216 247 221 187 184 184 157 167 135 163 151 112 109 114 116
332 330 328 329 327 327 321 318 311 302 202 210 228 227 242 277 295 301 311 290 296 293 246 243 230 230 233 222 208 233 238 228 236 192 180 165 204 176 235 188 204 214 225 198 210 221 220 235 209 219 232 232 237 249 207 188 274 248 222 256 270 283 278 327 306 326 347 28 98 86 40 347 319 204 279 289 212 174 169 136 110 84 77 92 106 109 112 125
331 330 328 327 331 327 323 315 312 245 319 188 239 248 253 256 267 298 37 303 255 259 240 246 218 233 233 194 201 205 208 248 227 224 178 169 184 162 212 214 225 215 223 213 206 225 243 244 205 202 224 231 242 251 224 160 251 313 245 218 245 267 280 302 307 337 340 340 336 93 55 301 272 287 256 253 201 178 161 130 132 97 102 103 107 114 115 116
329 327 327 327 329 332 317 307 284 360 313 285 251 292 250 233 237 267 64 275 290 270 242 241 136 236 185 202 185 210 199 229 208 216 209 178 178 204 164 234 189 221 212 224 218 211 232 239 227 203 209 222 222 232 199 152 224 250 256 252 261 262 264 282 286 345 353 171 271 105 156 267 314 275 273 257 177 163 144 126 144 110 109 115 124 130 126 130
328 326 325 326 329 337 349 346 350 324 319 296 340 329 334 22 358 21 61 285 297 233 203 65 160 320 200 168 185 165 213 228 172 201 221 165 193 178 225 214 200 242 224 214 208 230 206 240 237 226 195 214 218 202 211 144 168 246 240 272 276 270 260 236 256 257 243 228 143 128 119 167 288 283 250 244 140 165 148 146 78 98 119 119 121 126 131 125
325 324 323 322 322 328 263 298 320 313 257 278 314 322 318 9 349 23 98 346 257 263 156 206 244 22 296 169 175 182 215 120 174 194 215 161 186 170 211 219 225 212 224 245 217 241 193 219 237 240 241 93 174 180 204 191 212 226 213 229 251 264 260 241 207 237 234 78 324 245 141 119 264 265 279 254 198 202 167 124 111 114 122 127 134 137 133 137
322 320 322 320 319 305 267 234 269 267 254 321 316 309 343 341 14 95 158 153 287 329 349 179 329 190 227 162 177 178 204 237 243 164 181 160 186 175 191 230 255 269 270 236 227 261 213 207 199 206 188 235 200 197 199 194 210 235 243 251 261 276 280 269 224 227 338 88 270 251 162 190 280 274 277 247 224 188 170 132 121 131 129 134 137 129 126 131
319 317 318 321 321 308 13 181 228 243 278 290 301 304 342 4 22 49 348 274 188 282 177 77 252 178 226 161 192 166 230 222 259 159 161 158 193 219 259 211 228 254 269 270 258 241 263 213 209 184 196 201 190 224 225 224 223 210 207 230 259 263 256 251 200 146 110 199 245 242 269 151 283 273 244 171 206 172 136 104 107 120 119 124 132 126 136 138
316 312 312 315 292 299 321 271 247 243 253 265 261 291 334 334 156 162 230 255 324 253 332 138 180 157 186 193 183 185 223 244 245 188 173 142 174 200 227 269 261 263 270 287 273 248 252 249 192 282 171 185 186 248 224 233 214 213 207 208 245 300 306 356 304 132 213 270 239 196 232 166 210 296 340 318 356 112 124 125 127 121 117 128 122 122 132 132
311 308 301 300 263 265 242 237 36 2 334 326 325 347 49 6 251 187 229 28 253 247 179 191 216 190 188 188 225 168 204 222 249 202 178 162 164 187 188 219 175 237 273 257 262 237 239 242 179 247 26 1 177 226 264 246 217 201 205 219 176 280 21 321 40 219 210 194 230 174 200 233 210 49 262 6 40 107 123 133 132 124 120 115 110 116 127 134
311 306 302 283 250 224 234 246 301 301 309 308 352 350 58 142 246 205 265 301 255 18 14 338 193 203 199 196 211 217 175 226 215 231 172 163 166 190 189 210 206 166 207 251 267 283 278 262 237 199 209 191 223 204 246 244 223 111 158 166 157 175 178 248 267 191 270 283 230 207 208 213 230 60 3 64 37 79 105 111 126 127 131 130 113 98 116 125
309 308 304 248 216 212 228 238 247 266 273 302 1 341 2 268 243 196 234 242 268 309 321 302 316 283 199 204 195 206 187 212 220 188 173 166 188 195 198 211 228 212 205 216 219 191 274 248 254 219 222 156 205 212 203 203 183 223 206 149 172 149 152 217 187 192 211 212 250 223 176 240 104 190 120 92 75 60 41 91 115 125 132 134 120 106 104 109
310 301 272 266 226 234 226 226 247 254 266 346 268 164 168 229 280 260 252 265 268 287 287 303 288 295 274 224 114 291 258 199 212 208 181 176 196 195 186 203 221 230 186 210 251 274 216 209 220 212 220 170 203 195 237 278 346 263 238 199 226 220 152 150 229 164 200 9 355 1 132 196 155 233 125 78 69 58 58 75 103 118 125 116 109 113 115 117
310 294 223 243 189 223 196 209 226 238 243 206 159 217 216 200 214 201 259 259 258 268 295 292 284 271 246 230 182 200 315 14 312 261 209 190 186 207 208 194 207 208 198 182 196 232 278 283 229 202 214 181 194 175 212 178 225 269 37 212 214 188 132 103 344 258 73 51 274 164 30 25 54 33 49 78 68 58 59 61 63 61 86 104 109 121 121 130
303 311 271 230 222 175 176 196 203 186 173 213 208 250 234 256 253 278 289 287 305 326 320 311 294 272 203 229 187 178 183 221 197 258 313 34 356 285 231 228 196 193 226 191 262 221 176 239 290 321 204 218 198 181 209 181 171 91 216 233 293 347 121 135 184 333 104 161 253 112 163 182 131 211 323 73 75 66 69 69 67 62 69 77 96 111 129 142
310 283 272 270 256 157 175 195 177 155 182 210 243 261 280 270 243 256 273 282 288 296 306 296 300 307 285 306 237 207 108 222 305 213 130 335 178 230 36 354 323 334 265 230 207 278 215 285 284 288 27 307 244 176 208 242 172 158 203 211 115 339 326 318 99 196 120 242 260 292 157 89 95 193 123 106 108 100 89 85 78 78 84 94 105 122 128 132
260 299 328 350 117 164 167 148 145 156 195 249 251 270 238 251 278 281 287 293 298 299 295 290 287 256 324 320 326 294 157 193 208 32 351 336 337 347 64 355 300 326 342 21 301 237 117 144 295 336 305 350 337 181 233 248 239 243 251 17 130 114 159 119 187 190 125 264 1 330 44 239 285 231 235 145 126 124 114 93 89 90 101 113 121 126 136 142
220 273 218 256 85 26 99 112 145 170 242 228 222 238 282 284 269 257 258 265 280 276 269 287 301 307 301 294 309 304 245 189 162 162 157 256 206 305 24 305 303 309 2 10 63 348 280 123 213 285 331 80 355 274 210 161 290 246 257 232 129 115 208 118 342 135 153 159 196 152 303 286 273 249 170 150 135 132 129 117 106 104 110 114 125 133 137 141
276 260 246 271 79 77 57 56 162 213 231 259 257 270 274 273 282 283 284 272 266 239 259 268 278 278 352 343 329 342 328 62 153 159 178 188 155 345 277 67 321 3 348 34 33 19 19 48 184 275 357 78 196 43 46 36 25 11 227 220 177 115 85 78 259 284 137 104 194 127 221 284 278 317 68 109 121 116 128 126 117 115 116 123 123 130 133 133
301 273 229 135 105 98 99 118 236 210 247 249 260 260 264 255 261 267 265 268 274 284 245 257 257 291 303 298 318 313 326 340 18 46 14 76 36 165 262 233 358 22 41 100 301 154 110 251 121 212 194 225 286 354 23 44 30 58 46 11 353 23 121 125 133 281 14 44 53 135 115 263 332 14 12 5 50 52 66 82 92 87 85 78 89 92 105 126
220 262 152 142 144 155 222 274 308 348 305 308 320 292 290 288 284 295 311 308 284 260 312 315 328 310 11 351 303 277 293 274 139 134 190 105 192 225 175 87 6 36 27 333 3 321 23 20 359 305 354 321 341 25 42 45 34 21 22 12 15 23 325 210 183 176 167 314 32 355 57 255 9 47 52 20 5 20 1 19 48 62 76 82 80 67 64 60
306 296 35 133 146 232 72 14 327 314 306 314 314 304 305 297 297 296 285 288 299 280 296 324 328 350 318 324 314 303 330 328 182 142 162 177 185 231 187 119 56 51 82 245 116 291 26 296 97 332 356 346 346 350 14 20 51 51 10 7 23 19 20 352 79 44 98 202 149 134 205 261 343 55 80 71 20 58 41 356 35 61 58 65 67 50 37 20
285 260 148 345 99 139 95 192 245 295 281 310 320 309 310 295 281 280 298 303 305 308 18 334 334 328 306 339 317 291 245 278 352 35 88 103 162 218 185 135 117 95 117 114 149 62 98 238 51 73 128 133 271 255 261 330 289 290 25 23 30 21 3 26 56 17 85 319 105 124 116 108 91 86 80 86 80 58 28 37 32 41 51 48 50 49 31 26
308 6 335 85 3 49 95 201 80 308 326 347 330 291 288 287 288 305 310 278 313 336 20 350 312 330 321 311 315 328 330 330 276 143 227 125 130 250 173 152 146 164 315 359 28 101 153 238 152 148 134 188 199 192 213 137 39 66 39 35 22 30 26 53 65 100 156 187 97 178 144 134 108 105 103 105 90 63 44 51 47 33 33 34 53 60 63 40
304 49 354 344 340 27 341 336 352 351 245 141 345 315 327 333 326 313 341 299 38 1 340 25 318 329 307 317 300 312 325 352 2 48 344 35 342 16 21 353 162 154 115 127 343 78 74 89 244 187 205 199 163 161 175 147 144 78 56 40 45 41 42 50 59 245 286 70 81 8 128 111 133 134 138 122 75 86 78 72 67 60 45 42 32 54 47 49
112 301 49 189 131 290 357 344 347 353 331 256 182 315 337 339 338 343 336 319 331 353 349 347 6 346 333 9 350 323 346 355 51 24 355 11 351 348 27 15 31 1 34 165 135 97 170 178 259 135 239 250 197 147 138 117 66 75 75 68 61 56 45 51 359 309 279 159 161 126 106 99 102 82 75 53 66 84 83 84 81 77 65 64 79 74 67 62
91 140 48 360 62 335 73 300 23 351 295 34 272 7 12 1 325 3 60 327 317 353 10 23 350 355 6 20 45 37 23 27 357 27 13 1 347 8 18 344 59 41 355 17 24 24 350 126 306 146 206 135 61 72 64 80 100 83 85 76 80 70 57 43 21 358 39 94 121 116 94 68 45 39 43 66 71 72 66 74 75 70 67 70 72 73 71 67
21 5 338 321 250 104 40 349 17 336 27 17 351 32 267 319 40 353 258 199 332 21 343 53 353 4 16 31 30 38 2 31 325 44 177 161 295 69 104 188 276 355 11 10 353 354 39 305 341 305 49 118 106 92 69 67 74 92 70 66 77 80 63 47 35 4 52 68 80 97 90 82 30 45 56 54 74 77 66 60 69 80 83 83 85 82 78 77
333 31 321 356 326 248 109 13 42 344 11 344 3 16 18 14 61 29 328 7 37 23 16 25 33 296 23 24 24 9 352 345 330 316 327 339 165 245 143 233 122 1 347 1 35 355 6 200 242 244 54 342 124 116 92 74 49 55 68 56 46 71 66 8 61 320 47 98 92 84 78 88 88 76 68 43 63 67 68 64 59 62 67 74 80 82 80 75
359 356 21 356 304 321 70 324 33 27 5 276 335 10 360 6 12 14 40 336 10 23 12 12 8 20 25 25 13 337 317 320 316 312 303 288 277 269 202 155 160 140 164 215 205 116 227 1 31 7 58 7 343 66 104 95 65 31 354 327 340 78 111 97 72 78 116 116 53 87 98 107 115 113 85 54 71 71 63 62 72 69 67 73 78 79 78 72